sat.trackr.live / text

‹ back to catalog

STARLINK-31507

NORAD 59401 · 2024-064D

PAYLOAD ACTIVE UNKNOWN

§ Identity

Operator
Country
US
Launch date
2024-04-05
Launch site
AFETR
Launch vehicle
Mass (kg)
RCS (m²)

Purposes: comms

External: N2YO · Heavens-Above · Gunter

§ Orbital elements

Epoch: 2026-05-24T15:27:59.235840Z

Period
94.27 min
Inclination
43.0009°
Eccentricity
0.0001240
Mean motion
15.27574138 rev/d
Perigee alt
482.2 km
Apogee alt
483.9 km
Semi-major
6,861.2 km
B*
-4.8201e-5
RAAN
347.0833°
Arg perigee
265.0040°
Mean anomaly
95.0670°
Rev number
12,078

§ Raw data

STARLINK-315071 59401U 24064D   26144.64443560 -.00001588  00000+0 -48201-4 0  99962 59401  43.0009 347.0833 0001240 265.0040  95.0670 15.27574138120787

JSON: /api/v1/satellites/59401 · /tle

For live sub-satellite position, see the globe view (requires WebGL).

§ Visibility from observer

Set your observer location to see the next 7 days of passes ≥ 10°. The values pass through the URL so the page stays shareable.

No JS? Fill the form by hand. The geolocation button needs JavaScript.